Location: Tel Aviv
(32.0670°N, 34.7670°E)
Time: 13:20:51
(UTC+03:00)

Tiros 1 - Pass Details

Date: 24 January 2022
Orbit: 629 x 663 km, 48.4° (Epoch: 27 May)

Event Time Altitude Azimuth Distance (km) Brightness Sun altitude
Rises 23:01:35 0° 263° (W) 2,987 - -72.6°
Reaches altitude 10° 23:04:16 10° 276° (W) 2,076 - -73.0°
Maximum altitude 23:08:16 26° 333° (NNW) 1,310 - -73.5°
Drops below altitude 10° 23:12:15 10° 29° (NNE) 2,074 - -74.1°
Sets 23:14:57 0° 42° (NE) 2,984 - -74.4°
